Home   Weather   Santa Cruz   Past weeks

Flag for USA Past Weather in Santa Cruz, California, USA — Yesterday and Last 2 Weeks

Now
60 °F

Passing clouds.


Feels Like: 60 °F
Forecast: 56 / 68 °F
Wind: 7 mph from Northeast

Location: Watsonville Municipal Airport

Current Time: Jun 26, 2017 at 11:54:35 pm

Latest Report: Jun 26, 2017 at 10:53 pm


Visibility: 10 mi

Pressure: 30.00 "Hg

Humidity: 93%

Dew Point: 58 °F

Location of Santa CruzLocation

Past Weather in Santa Cruz — Graph

°F

Santa Cruz Temperature Yesterday

Maximum temperature yesterday: 70 °F (at 2:53 pm)
Minimum temperature yesterday: 56 °F (at 1:53 am)
Average temperature yesterday: 60 °F

High & Low Weather Summary for the Past Weeks

 TemperatureHumidityPressure
High82 °F (Jun 17, 12:53 pm)100% (Jun 12, 4:53 am)30.16 "Hg (Jun 12, 4:53 am)
Low47 °F (Jun 12, 4:53 am)48% (Jun 14, 2:53 pm)29.72 "Hg (Jun 22, 1:53 am)
Average61 °F84%29.93 "Hg
* Reported Jun 11 10:53 pm — Jun 26 10:22 pm, Santa Cruz. Weather by CustomWeather, © 2017

Note: Actual official high and low records may vary slightly from our data, if they occured in-between our weather recording intervals... More about our weather records

Advertising

Santa Cruz Weather History for the Previous 24 Hours

Scroll right to see more
 ConditionsComfort  
Time TempWeatherWind HumidityBarometerVisibility
10:22 pm
Mon, Jun 26
60 °FPassing clouds.7 mph90%30.00 "Hg10 mi
9:53 pm60 °FPassing clouds.6 mph90%29.99 "Hg10 mi
8:53 pm60 °FClear.7 mph90%29.99 "Hg10 mi
7:53 pm64 °FSunny.9 mph78%29.98 "Hg10 mi
6:53 pm68 °FSunny.9 mph70%29.97 "Hg10 mi
6:18 pm69 °FSunny.9 mph68%29.97 "Hg10 mi
5:53 pm70 °FSunny.8 mph66%29.97 "Hg10 mi
4:53 pm76 °FSunny.8 mph50%29.98 "Hg10 mi
3:53 pm77 °FSunny.8 mph50%30.00 "Hg10 mi
2:53 pm76 °FSunny.9 mph52%30.01 "Hg10 mi
1:53 pm74 °FSunny.8 mph57%30.02 "Hg10 mi
12:53 pm73 °FSunny.9 mph57%30.02 "Hg10 mi
11:53 am73 °FSunny.9 mph59%30.03 "Hg10 mi
10:53 am72 °FSunny.8 mph61%30.03 "Hg10 mi
9:53 am69 °FSunny.5 mph66%30.03 "Hg10 mi
8:53 am63 °FSunny.No wind78%30.04 "Hg10 mi
7:53 am60 °FSunny.No wind90%30.03 "Hg10 mi
6:53 am55 °FSunny.3 mph96%30.03 "Hg10 mi
5:53 am52 °FSunny.3 mph100%30.02 "Hg10 mi
4:53 am53 °FClear.3 mph96%30.01 "Hg10 mi
3:53 am53 °FClear.3 mph100%30.01 "Hg10 mi
2:53 am54 °FClear.3 mph97%30.02 "Hg10 mi
1:53 am54 °FClear.3 mph97%30.03 "Hg10 mi
12:53 am55 °FClear.3 mph96%30.03 "Hg10 mi
11:53 pm
Sun, Jun 25
56 °FClear.3 mph97%30.03 "Hg10 mi
11:10 pm57 °FPassing clouds.No wind93%30.03 "Hg10 mi
Weather by CustomWeather, © 2017

See weather overviewHow to use our weather pages